Regional Weather Roundup
Issued by NWS

Home | Current Version | Previous Version | Text Only | Print | Product List | Glossary On
Versions: 1 2 3 4 5 6 7 8 9 10 11 12 13 14 15 16 17 18 19 20 21 22 23 24 25 26 27 28 29 30 31 32 33 34 35 36 37 38 39 40 41 42 43 44 45 46 47 48 49 50
000
ASUS42 KKEY 020510
RWRKEY

FLORIDA REGIONAL WEATHER ROUNDUP FOR THE FLORIDA KEYS
NATIONAL WEATHER SERVICE KEY WEST FLORIDA
100 AM EDT THU OCT 02 2014

...SOUTH FLORIDA AND THE KEYS...

CITY           SKY/WX    TMP DP  RH WIND       PRES   REMARKS
FORT MYERS     CLEAR     78  76  93 CALM      29.97F
SW REGIONAL AP CLEAR     77  75  93 CALM      29.98F
NAPLES         CLEAR     80  76  87 SE3       29.98F
MIAMI          PTCLDY    82  76  81 W5        29.98F
WEST KENDALL   PTCLDY    80  76  87 CALM      29.99S
HOMESTEAD      PTCLDY    79  75  88 W5        29.98F
MARATHON       CLEAR     81  77  88 CALM      29.98F
BOCA CHICA NAS CLEAR     82  75  79 E5        29.99S
KEY WEST INTL  CLEAR     84  76  76 SE6       29.99F HX  93

...INTERNATIONAL WEATHER...

CITY           SKY/WX    TMP DP  RH WIND       PRES   REMARKS
NASSAU BAHAMAS PTCLDY    82  75  78 CALM      29.99F
CANCUN MEXICO  MOCLDY    82  79  89 E8        29.96F HX  93
COZUMEL MEXICO PTCLDY    75  75 100 SE3       29.95F

ADJACENT COASTAL WATERS...

STATION/POSITION TIME  SKY/WX   TEMP    WIND        PRES    WAVE
                                AIR SEA DIR/SP/G            HT/PER
                 (UTC)          (F)     (DEG/KT/KT) (MB)    (FT/S)
PULASKI SHOAL LI 0400            84     110/  1/  2 1015.6S
SAND KEY         0436            84     130/  5/  5 1015.5F
SOMBRERO KEY     0400            83     230/  1/  2 1016.3F
LONG KEY         0400            84 88  300/  2/  3 1016.2F
MOLASSES REEF    0400            85 86  300/  5/  5 1015.4F
FOWEY ROCKS      0400            83 85  270/ 10/ 11 1015.8F
Buoy 42080       NOT AVBL

$$


USA.gov is the U.S. government's official web portal to all federal, state and local government web resources and services.